Date String (YYYY-MM-DD hh:mm:ss) UTC,Instrument flags,Ambient pressure (hPa),Sample flow (lpm),Bypass flow (lpm),Sample temperature (°C),Ambient temperature (°C),ASC tube jacket temperature (°C),LED temperature (°C),Box temperature (°C),Sample RH (%),Span deviation,Mass concentration (μg/m³),Mass concentration (μg/m³),Mass concentration (μg/m³)
DateTimeUTC,F1_M11,P_M11,Q1_M11,Q2_M11,T1_M11,T2_M11,T3_M11,T4_M11,T5_M11,U1_M11,ZSPAN_M11,X0_M11,X2_M11,X1_M11
2021-10-24 23:00:00,,0821.8,5.01,0.00,29.9,29.0,00.0,39.0,31.6,10.2,0000.0,0003.92,0000.85,0000.52
2021-10-24 23:01:00,,0821.8,4.99,0.00,29.9,29.0,00.0,39.0,31.6,10.2,0000.0,0003.88,0000.86,0000.52
2021-10-24 23:02:00,,0821.8,5.01,0.00,29.9,29.1,00.0,39.0,31.6,10.2,0000.0,0003.95,0000.88,0000.53
2021-10-24 23:03:00,,0822.2,4.99,0.00,29.9,29.1,00.0,39.0,31.7,10.2,0000.0,0004.06,0000.90,0000.54
2021-10-24 23:04:00,,0821.9,5.01,0.00,30.0,29.2,00.0,39.0,31.7,10.2,0000.0,0004.13,0000.95,0000.55
2021-10-24 23:05:00,,0821.9,5.00,0.00,30.0,29.2,00.0,39.0,31.8,10.2,0000.0,0004.02,0000.96,0000.55
2021-10-24 23:06:00,,0821.9,5.00,0.00,30.0,29.2,00.0,39.0,31.7,10.2,0000.0,0003.40,0000.98,0000.56
2021-10-24 23:07:00,,0822.1,4.99,0.00,30.0,29.3,00.0,39.0,31.8,10.2,0000.0,0003.52,0001.03,0000.56
2021-10-24 23:08:00,,0822.1,5.01,0.00,30.0,29.3,00.0,39.1,31.8,10.3,0000.0,0003.00,0001.02,0000.57
2021-10-24 23:09:00,,0822.1,5.01,0.00,30.1,29.3,00.0,39.1,31.8,10.3,0000.0,0002.32,0001.03,0000.57
2021-10-24 23:10:00,,0822.1,4.99,0.00,30.1,29.3,00.0,39.1,31.8,10.3,0000.0,0002.36,0001.04,0000.57
2021-10-24 23:11:00,,0822.1,5.00,0.00,30.1,29.3,00.0,39.1,31.8,10.3,0000.0,0002.35,0001.06,0000.58
2021-10-24 23:12:00,,0822.1,5.01,0.00,30.1,29.4,00.0,39.1,31.9,10.3,0000.0,0002.75,0001.07,0000.58
2021-10-24 23:13:00,,0822.2,4.99,0.00,30.1,29.4,00.0,39.1,31.9,10.3,0000.0,0002.76,0001.05,0000.58
2021-10-24 23:14:00,,0822.1,5.00,0.00,30.1,29.4,00.0,39.1,31.9,10.3,0000.0,0003.22,0001.08,0000.59
2021-10-24 23:15:00,,0822.1,5.01,0.00,30.1,29.4,00.0,39.1,31.9,10.3,0000.0,0003.32,0001.05,0000.59
2021-10-24 23:16:00,,0822.1,4.98,0.00,30.2,29.4,00.0,39.2,31.9,10.3,0000.0,0003.86,0001.03,0000.59
2021-10-24 23:17:00,,0822.2,5.00,0.00,30.2,29.5,00.0,39.2,31.9,10.3,0000.0,0004.23,0000.98,0000.58
2021-10-24 23:18:00,,0822.2,5.00,0.00,30.2,29.5,00.0,39.2,32.0,10.2,0000.0,0004.41,0000.92,0000.57
2021-10-24 23:19:00,,0822.2,4.99,0.00,30.2,29.5,00.0,39.2,32.0,10.2,0000.0,0005.18,0000.92,0000.57
2021-10-24 23:20:00,,0822.2,5.00,0.00,30.3,29.5,00.0,39.2,32.0,10.1,0000.0,0005.15,0000.93,0000.57
2021-10-24 23:21:00,,0822.3,5.00,0.00,30.3,29.6,00.0,39.2,32.0,10.1,0000.0,0005.20,0000.95,0000.57
2021-10-24 23:22:00,,0822.4,5.00,0.00,30.3,29.6,00.0,39.2,32.0,10.1,0000.0,0005.16,0000.96,0000.56
2021-10-24 23:23:00,,0822.4,4.99,0.00,30.3,29.6,00.0,39.3,32.1,10.1,0000.0,0004.77,0000.95,0000.56
2021-10-24 23:24:00,,0822.4,5.00,0.00,30.3,29.6,00.0,39.3,32.1,10.2,0000.0,0004.77,0000.98,0000.56
2021-10-24 23:25:00,,0822.4,5.02,0.00,30.3,29.3,00.0,39.3,32.0,10.2,0000.0,0004.46,0000.99,0000.55
2021-10-24 23:26:00,,0822.4,4.99,0.00,30.3,27.3,00.0,39.3,31.7,10.2,0000.0,0004.44,0000.99,0000.55
2021-10-24 23:27:00,,0822.4,4.99,0.00,30.1,25.8,00.0,39.2,31.4,10.3,0000.0,0004.13,0000.99,0000.54
2021-10-24 23:28:00,,0822.4,5.00,0.00,30.0,26.0,00.0,39.2,31.3,10.4,0000.0,0003.76,0001.02,0000.54
2021-10-24 23:29:00,,0822.4,5.00,0.00,29.9,26.5,00.0,39.1,31.3,10.4,0000.0,0005.36,0001.07,0000.55
2021-10-24 23:30:00,,0822.4,5.00,0.00,29.8,26.9,00.0,39.1,31.3,10.5,0000.0,0004.54,0001.08,0000.55
2021-10-24 23:31:00,,0822.4,5.00,0.00,29.8,27.4,00.0,39.0,31.4,10.5,0000.0,0004.39,0001.06,0000.55
2021-10-24 23:32:00,,0822.4,5.00,0.00,29.8,27.7,00.0,39.0,31.4,10.5,0000.0,0004.41,0001.06,0000.56
2021-10-24 23:33:00,,0822.4,5.00,0.00,29.8,28.0,00.0,39.0,31.4,10.5,0000.0,0004.53,0001.06,0000.56
2021-10-24 23:34:00,,0822.4,5.00,0.00,29.8,28.2,00.0,39.0,31.5,10.4,0000.0,0004.69,0001.10,0000.56
2021-10-24 23:35:00,,0822.5,5.00,0.00,29.8,28.4,00.0,39.0,31.6,10.4,0000.0,0004.64,0001.07,0000.55
2021-10-24 23:36:00,,0822.4,5.01,0.00,29.9,28.5,00.0,39.0,31.6,10.5,0000.0,0005.30,0001.06,0000.55
2021-10-24 23:37:00,,0822.4,4.99,0.00,29.9,28.7,00.0,39.0,31.6,10.4,0000.0,0005.98,0001.09,0000.56
2021-10-24 23:38:00,,0822.4,5.01,0.00,29.9,28.7,00.0,39.0,31.6,10.3,0000.0,0006.34,0001.17,0000.61
2021-10-24 23:39:00,,0822.4,5.00,0.00,29.9,28.8,00.0,39.0,31.7,10.3,0000.0,0007.06,0001.25,0000.66
2021-10-24 23:40:00,,0822.4,4.99,0.00,29.8,28.8,00.0,39.0,31.6,10.3,0000.0,0007.40,0001.39,0000.71
2021-10-24 23:41:00,,0822.4,5.01,0.00,29.8,28.9,00.0,39.0,31.6,10.3,0000.0,0008.42,0001.50,0000.77
2021-10-24 23:42:00,,0822.4,5.00,0.00,29.8,28.9,00.0,39.0,31.6,10.3,0000.0,0008.70,0001.66,0000.83
2021-10-24 23:43:00,,0822.4,4.99,0.00,29.8,28.9,00.0,39.0,31.6,10.3,0000.0,0009.06,0001.76,0000.88
2021-10-24 23:44:00,,0822.5,5.00,0.00,29.8,28.9,00.0,39.0,31.6,10.3,0000.0,0009.40,0001.89,0000.93
2021-10-24 23:45:00,,0822.5,5.00,0.00,29.8,28.9,00.0,39.0,31.6,10.4,0000.0,0009.77,0002.00,0000.99
2021-10-24 23:46:00,,0822.6,5.01,0.00,29.8,29.0,00.0,39.0,31.6,10.5,0000.0,0010.38,0002.18,0001.04
2021-10-24 23:47:00,,0822.5,4.99,0.00,29.8,29.0,00.0,39.0,31.6,10.4,0000.0,0010.80,0002.27,0001.08
2021-10-24 23:48:00,,0822.6,5.00,0.00,29.8,29.0,00.0,38.9,31.6,10.4,0000.0,0010.86,0002.30,0001.12
2021-10-24 23:49:00,,0822.6,4.99,0.00,29.8,29.0,00.0,38.9,31.6,10.5,0000.0,0010.91,0002.38,0001.13
2021-10-24 23:50:00,,0822.6,5.00,0.00,29.8,29.0,00.0,38.9,31.6,10.5,0000.0,0011.00,0002.44,0001.14
2021-10-24 23:51:00,,0822.6,5.01,0.00,29.8,29.0,00.0,38.9,31.6,10.4,0000.0,0010.15,0002.40,0001.15
2021-10-24 23:52:00,,0822.6,4.99,0.00,29.9,29.1,00.0,39.0,31.7,10.4,0000.0,0009.80,0002.41,0001.16
2021-10-24 23:53:00,,0822.7,5.00,0.00,29.9,29.1,00.0,39.0,31.7,10.4,0000.0,0010.32,0002.47,0001.16
2021-10-24 23:54:00,,0822.6,5.00,0.00,29.9,29.1,00.0,39.0,31.6,10.4,0000.0,0010.61,0002.49,0001.18
2021-10-24 23:55:00,,0822.7,5.01,0.00,29.9,29.1,00.0,39.0,31.7,10.3,0000.0,0011.48,0002.56,0001.20
2021-10-24 23:56:00,,0822.6,5.00,0.00,29.9,29.1,00.0,39.0,31.7,10.3,0000.0,0012.97,0002.60,0001.20
2021-10-24 23:57:00,,0822.7,5.01,0.00,29.9,29.1,00.0,39.0,31.7,10.3,0000.0,0013.33,0002.59,0001.21
2021-10-24 23:58:00,,0822.6,5.01,0.00,29.9,29.1,00.0,39.0,31.7,10.3,0000.0,0012.86,0002.67,0001.22
2021-10-24 23:59:00,,0822.6,4.99,0.00,29.9,29.1,00.0,39.0,31.7,10.4,0000.0,0012.46,0002.71,0001.23
